Starlink 11562

operational
NORAD ID: 62918 Int'l Des: 2025-027 Owner: SPXS Country: US Constellation: starlink
LEOCIRCULAR

关于 Starlink 11562

正在加载描述...

实时位置

正在加载3D地球...

即将过境

高度历史

Altitude vs Time

uPlot chart will show altitude changes over time

两行轨道根数

1 62918U 25027M 25257.49708392 .00162364 00000-0 12432-2 0 9991
2 62918 43.0025 329.5107 0001115 263.0651 97.0090 15.70860438 35487
Epoch: Sep 14, 2025 • Age: 19 hours

当前状态

高度 362.0 km
速度 7.69 km/s
星下点 -26.88°S, 75.22°E
发射日期 Feb 8, 2025
运行时间 0.5 years
类型 internet

技术详情

分类 Payload
质量 960.00 kg
干质量 910.00 kg
总质量 960.00 kg
长度 0.30 m
直径 4.10 m
跨度 29.00 m
形状 Box + pan
制造商 SPXS
平台类型 Starlink V2MD
阶段状态 In Orbit
所有者/国家 SPXS/US

大型星座

Loading constellations...